owner,sensor,date,latitude,longitude,air_pressure(mBar),qcFlag 
WAVCIS,ioos:station:WAVCIS:CSI15:1,2009-08-01T00:00:00Z,28.8332,-90.8320,1015.21,11111222 
WAVCIS,ioos:station:WAVCIS:CSI15:1,2009-08-01T01:00:00Z,28.8332,-90.8320,1015.43,11111222 
WAVCIS,ioos:station:WAVCIS:CSI15:1,2009-08-01T02:00:00Z,28.8332,-90.8320,1015.78,11111222 
WAVCIS,ioos:station:WAVCIS:CSI15:1,2009-08-01T03:00:00Z,28.8332,-90.8320,1016.35,11111222 
WAVCIS,ioos:station:WAVCIS:CSI15:1,2009-08-01T04:00:00Z,28.8332,-90.8320,1016.44,11111222 
WAVCIS,ioos:station:WAVCIS:CSI15:1,2009-08-01T05:00:00Z,28.8332,-90.8320,1016.34,11111222 
WAVCIS,ioos:station:WAVCIS:CSI15:1,2009-08-01T06:00:00Z,28.8332,-90.8320,1015.7,11111222 
WAVCIS,ioos:station:WAVCIS:CSI15:1,2009-08-01T07:00:00Z,28.8332,-90.8320,1015.15,11111222 
WAVCIS,ioos:station:WAVCIS:CSI15:1,2009-08-01T08:00:00Z,28.8332,-90.8320,1014.93,11111222 
WAVCIS,ioos:station:WAVCIS:CSI15:1,2009-08-01T09:00:00Z,28.8332,-90.8320,1014.72,11111222 
WAVCIS,ioos:station:WAVCIS:CSI15:1,2009-08-01T10:00:00Z,28.8332,-90.8320,1015.25,11111222 
WAVCIS,ioos:station:WAVCIS:CSI15:1,2009-08-01T11:00:00Z,28.8332,-90.8320,1015.7,11111222 
WAVCIS,ioos:station:WAVCIS:CSI15:1,2009-08-01T12:00:00Z,28.8332,-90.8320,1016.3,11111222 
WAVCIS,ioos:station:WAVCIS:CSI15:1,2009-08-01T13:00:00Z,28.8332,-90.8320,1016.68,11111222 
WAVCIS,ioos:station:WAVCIS:CSI15:1,2009-08-01T14:00:00Z,28.8332,-90.8320,1016.75,11111222 
WAVCIS,ioos:station:WAVCIS:CSI15:1,2009-08-01T15:00:00Z,28.8332,-90.8320,1016.89,11111222 
WAVCIS,ioos:station:WAVCIS:CSI15:1,2009-08-01T16:00:00Z,28.8332,-90.8320,1016.96,11111222 
WAVCIS,ioos:station:WAVCIS:CSI15:1,2009-08-01T17:00:00Z,28.8332,-90.8320,1016.94,11111222 
WAVCIS,ioos:station:WAVCIS:CSI15:1,2009-08-01T18:00:00Z,28.8332,-90.8320,1016.85,11111222 
WAVCIS,ioos:station:WAVCIS:CSI15:1,2009-08-01T19:00:00Z,28.8332,-90.8320,1016.38,11111222 
WAVCIS,ioos:station:WAVCIS:CSI15:1,2009-08-01T20:00:00Z,28.8332,-90.8320,1015.82,11111222 
WAVCIS,ioos:station:WAVCIS:CSI15:1,2009-08-01T21:00:00Z,28.8332,-90.8320,1015.33,11111222 
WAVCIS,ioos:station:WAVCIS:CSI15:1,2009-08-01T22:00:00Z,28.8332,-90.8320,1015.13,11111222 
WAVCIS,ioos:station:WAVCIS:CSI15:1,2009-08-01T23:00:00Z,28.8332,-90.8320,1014.66,11111222 
WAVCIS,ioos:station:WAVCIS:CSI15:1,2009-08-02T00:00:00Z,28.8332,-90.8320,1014.39,11111222 
WAVCIS,ioos:station:WAVCIS:CSI15:1,2009-08-02T01:00:00Z,28.8332,-90.8320,1014.78,11111222 
WAVCIS,ioos:station:WAVCIS:CSI15:1,2009-08-02T02:00:00Z,28.8332,-90.8320,1015.21,11111222 
WAVCIS,ioos:station:WAVCIS:CSI15:1,2009-08-02T03:00:00Z,28.8332,-90.8320,1015.59,11111222 
WAVCIS,ioos:station:WAVCIS:CSI15:1,2009-08-02T04:00:00Z,28.8332,-90.8320,1015.91,11111222 
WAVCIS,ioos:station:WAVCIS:CSI15:1,2009-08-02T05:00:00Z,28.8332,-90.8320,1016.16,11111222 
WAVCIS,ioos:station:WAVCIS:CSI15:1,2009-08-02T06:00:00Z,28.8332,-90.8320,1015.84,11111222 
WAVCIS,ioos:station:WAVCIS:CSI15:1,2009-08-02T07:00:00Z,28.8332,-90.8320,1015.35,11111222 
WAVCIS,ioos:station:WAVCIS:CSI15:1,2009-08-02T08:00:00Z,28.8332,-90.8320,1014.61,11111222 
WAVCIS,ioos:station:WAVCIS:CSI15:1,2009-08-02T09:00:00Z,28.8332,-90.8320,1014.04,11111222 
WAVCIS,ioos:station:WAVCIS:CSI15:1,2009-08-02T10:00:00Z,28.8332,-90.8320,1014.06,11111222 
WAVCIS,ioos:station:WAVCIS:CSI15:1,2009-08-02T11:00:00Z,28.8332,-90.8320,1014.77,11111222 
WAVCIS,ioos:station:WAVCIS:CSI15:1,2009-08-02T12:00:00Z,28.8332,-90.8320,1015.33,11111222 
WAVCIS,ioos:station:WAVCIS:CSI15:1,2009-08-02T13:00:00Z,28.8332,-90.8320,1015.65,11111222 
WAVCIS,ioos:station:WAVCIS:CSI15:1,2009-08-02T14:00:00Z,28.8332,-90.8320,1016.08,11111222 
WAVCIS,ioos:station:WAVCIS:CSI15:1,2009-08-02T15:00:00Z,28.8332,-90.8320,1016.26,11111222 
WAVCIS,ioos:station:WAVCIS:CSI15:1,2009-08-02T16:00:00Z,28.8332,-90.8320,1016.59,11111222 
WAVCIS,ioos:station:WAVCIS:CSI15:1,2009-08-02T17:00:00Z,28.8332,-90.8320,1016.39,11111222 
WAVCIS,ioos:station:WAVCIS:CSI15:1,2009-08-02T18:00:00Z,28.8332,-90.8320,1016.28,11111222 
WAVCIS,ioos:station:WAVCIS:CSI15:1,2009-08-02T19:00:00Z,28.8332,-90.8320,1015.98,11111222 
WAVCIS,ioos:station:WAVCIS:CSI15:1,2009-08-02T20:00:00Z,28.8332,-90.8320,1015.38,11111222 
WAVCIS,ioos:station:WAVCIS:CSI15:1,2009-08-02T21:00:00Z,28.8332,-90.8320,1015.25,11111222 
WAVCIS,ioos:station:WAVCIS:CSI15:1,2009-08-02T22:00:00Z,28.8332,-90.8320,1015.15,11111222 
WAVCIS,ioos:station:WAVCIS:CSI15:1,2009-08-02T23:00:00Z,28.8332,-90.8320,1014.56,11111222 
WAVCIS,ioos:station:WAVCIS:CSI15:1,2009-08-03T00:00:00Z,28.8332,-90.8320,1013.91,11111222 
WAVCIS,ioos:station:WAVCIS:CSI15:1,2009-08-03T01:00:00Z,28.8332,-90.8320,1013.96,11111222 
WAVCIS,ioos:station:WAVCIS:CSI15:1,2009-08-03T02:00:00Z,28.8332,-90.8320,1014.3,11111222 
WAVCIS,ioos:station:WAVCIS:CSI15:1,2009-08-03T03:00:00Z,28.8332,-90.8320,1014.79,11111222 
WAVCIS,ioos:station:WAVCIS:CSI15:1,2009-08-03T04:00:00Z,28.8332,-90.8320,1015.32,11111222 
WAVCIS,ioos:station:WAVCIS:CSI15:1,2009-08-03T05:00:00Z,28.8332,-90.8320,1015.78,11111222 
WAVCIS,ioos:station:WAVCIS:CSI15:1,2009-08-03T06:00:00Z,28.8332,-90.8320,1015.09,11111222 
WAVCIS,ioos:station:WAVCIS:CSI15:1,2009-08-03T07:00:00Z,28.8332,-90.8320,1014.54,11111222 
WAVCIS,ioos:station:WAVCIS:CSI15:1,2009-08-03T08:00:00Z,28.8332,-90.8320,1014.22,11111222 
WAVCIS,ioos:station:WAVCIS:CSI15:1,2009-08-03T09:00:00Z,28.8332,-90.8320,1014.52,11111222 
WAVCIS,ioos:station:WAVCIS:CSI15:1,2009-08-03T10:00:00Z,28.8332,-90.8320,1014.49,11111222 
WAVCIS,ioos:station:WAVCIS:CSI15:1,2009-08-03T11:00:00Z,28.8332,-90.8320,1014.68,11111222 
WAVCIS,ioos:station:WAVCIS:CSI15:1,2009-08-03T12:00:00Z,28.8332,-90.8320,1015.13,11111222 
WAVCIS,ioos:station:WAVCIS:CSI15:1,2009-08-03T13:00:00Z,28.8332,-90.8320,1015.72,11111222 
WAVCIS,ioos:station:WAVCIS:CSI15:1,2009-08-03T14:00:00Z,28.8332,-90.8320,1016.28,11111222 
WAVCIS,ioos:station:WAVCIS:CSI15:1,2009-08-03T15:00:00Z,28.8332,-90.8320,1016.62,11111222 
WAVCIS,ioos:station:WAVCIS:CSI15:1,2009-08-03T16:00:00Z,28.8332,-90.8320,1016.64,11111222 
WAVCIS,ioos:station:WAVCIS:CSI15:1,2009-08-03T17:00:00Z,28.8332,-90.8320,1016.73,11111222 
WAVCIS,ioos:station:WAVCIS:CSI15:1,2009-08-03T18:00:00Z,28.8332,-90.8320,1016.62,11111222 
WAVCIS,ioos:station:WAVCIS:CSI15:1,2009-08-03T19:00:00Z,28.8332,-90.8320,1016.15,11111222 
WAVCIS,ioos:station:WAVCIS:CSI15:1,2009-08-03T20:00:00Z,28.8332,-90.8320,1015.49,11111222 
WAVCIS,ioos:station:WAVCIS:CSI15:1,2009-08-03T21:00:00Z,28.8332,-90.8320,1015.03,11111222 
WAVCIS,ioos:station:WAVCIS:CSI15:1,2009-08-03T22:00:00Z,28.8332,-90.8320,1014.82,11111222 
WAVCIS,ioos:station:WAVCIS:CSI15:1,2009-08-03T23:00:00Z,28.8332,-90.8320,1014.47,11111222 
WAVCIS,ioos:station:WAVCIS:CSI15:1,2009-08-04T00:00:00Z,28.8332,-90.8320,1014.35,11111222 
WAVCIS,ioos:station:WAVCIS:CSI15:1,2009-08-04T01:00:00Z,28.8332,-90.8320,1014.61,11111222 
WAVCIS,ioos:station:WAVCIS:CSI15:1,2009-08-04T02:00:00Z,28.8332,-90.8320,1014.74,11111222 
WAVCIS,ioos:station:WAVCIS:CSI15:1,2009-08-04T03:00:00Z,28.8332,-90.8320,1015.01,11111222 
WAVCIS,ioos:station:WAVCIS:CSI15:1,2009-08-04T04:00:00Z,28.8332,-90.8320,1015.31,11111222 
WAVCIS,ioos:station:WAVCIS:CSI15:1,2009-08-04T05:00:00Z,28.8332,-90.8320,1015.21,11111222 
WAVCIS,ioos:station:WAVCIS:CSI15:1,2009-08-04T06:00:00Z,28.8332,-90.8320,1015.15,11111222 
WAVCIS,ioos:station:WAVCIS:CSI15:1,2009-08-04T07:00:00Z,28.8332,-90.8320,1015.06,11111222 
WAVCIS,ioos:station:WAVCIS:CSI15:1,2009-08-04T08:00:00Z,28.8332,-90.8320,1014.78,11111222 
WAVCIS,ioos:station:WAVCIS:CSI15:1,2009-08-04T09:00:00Z,28.8332,-90.8320,1014.91,11111222 
WAVCIS,ioos:station:WAVCIS:CSI15:1,2009-08-04T10:00:00Z,28.8332,-90.8320,1015.09,11111222 
WAVCIS,ioos:station:WAVCIS:CSI15:1,2009-08-04T11:00:00Z,28.8332,-90.8320,1015.48,11111222 
WAVCIS,ioos:station:WAVCIS:CSI15:1,2009-08-04T12:00:00Z,28.8332,-90.8320,1015.43,11111222 
WAVCIS,ioos:station:WAVCIS:CSI15:1,2009-08-04T13:00:00Z,28.8332,-90.8320,1015.86,11111222 
WAVCIS,ioos:station:WAVCIS:CSI15:1,2009-08-04T14:00:00Z,28.8332,-90.8320,1016.06,11111222 
WAVCIS,ioos:station:WAVCIS:CSI15:1,2009-08-04T15:00:00Z,28.8332,-90.8320,1016.17,11111222 
WAVCIS,ioos:station:WAVCIS:CSI15:1,2009-08-04T16:00:00Z,28.8332,-90.8320,1016.54,11111222 
WAVCIS,ioos:station:WAVCIS:CSI15:1,2009-08-04T17:00:00Z,28.8332,-90.8320,1016.56,11111222 
WAVCIS,ioos:station:WAVCIS:CSI15:1,2009-08-04T18:00:00Z,28.8332,-90.8320,1016.27,11111222 
WAVCIS,ioos:station:WAVCIS:CSI15:1,2009-08-04T19:00:00Z,28.8332,-90.8320,1015.88,11111222 
WAVCIS,ioos:station:WAVCIS:CSI15:1,2009-08-04T20:00:00Z,28.8332,-90.8320,1015.58,11111222 
WAVCIS,ioos:station:WAVCIS:CSI15:1,2009-08-04T21:00:00Z,28.8332,-90.8320,1014.84,11111222 
WAVCIS,ioos:station:WAVCIS:CSI15:1,2009-08-04T22:00:00Z,28.8332,-90.8320,1014.37,11111222 
WAVCIS,ioos:station:WAVCIS:CSI15:1,2009-08-04T23:00:00Z,28.8332,-90.8320,1014.19,11111222 
WAVCIS,ioos:station:WAVCIS:CSI15:1,2009-08-05T00:00:00Z,28.8332,-90.8320,1014.19,11111222 
WAVCIS,ioos:station:WAVCIS:CSI15:1,2009-08-05T01:00:00Z,28.8332,-90.8320,1014.03,11111222 
WAVCIS,ioos:station:WAVCIS:CSI15:1,2009-08-05T02:00:00Z,28.8332,-90.8320,1014.37,11111222 
WAVCIS,ioos:station:WAVCIS:CSI15:1,2009-08-05T03:00:00Z,28.8332,-90.8320,1014.58,11111222 
WAVCIS,ioos:station:WAVCIS:CSI15:1,2009-08-05T04:00:00Z,28.8332,-90.8320,1015.16,11111222 
WAVCIS,ioos:station:WAVCIS:CSI15:1,2009-08-05T05:00:00Z,28.8332,-90.8320,1014.83,11111222 
WAVCIS,ioos:station:WAVCIS:CSI15:1,2009-08-05T06:00:00Z,28.8332,-90.8320,1014.52,11111222 
WAVCIS,ioos:station:WAVCIS:CSI15:1,2009-08-05T07:00:00Z,28.8332,-90.8320,1014.48,11111222 
WAVCIS,ioos:station:WAVCIS:CSI15:1,2009-08-05T08:00:00Z,28.8332,-90.8320,1014.3,11111222 
WAVCIS,ioos:station:WAVCIS:CSI15:1,2009-08-05T09:00:00Z,28.8332,-90.8320,1014.38,11111222 
WAVCIS,ioos:station:WAVCIS:CSI15:1,2009-08-05T10:00:00Z,28.8332,-90.8320,1014.39,11111222 
WAVCIS,ioos:station:WAVCIS:CSI15:1,2009-08-05T11:00:00Z,28.8332,-90.8320,1014.21,11111222 
WAVCIS,ioos:station:WAVCIS:CSI15:1,2009-08-05T12:00:00Z,28.8332,-90.8320,1014.81,11111222 
WAVCIS,ioos:station:WAVCIS:CSI15:1,2009-08-05T13:00:00Z,28.8332,-90.8320,1015.56,11111222 
WAVCIS,ioos:station:WAVCIS:CSI15:1,2009-08-05T14:00:00Z,28.8332,-90.8320,1016.12,11111222 
WAVCIS,ioos:station:WAVCIS:CSI15:1,2009-08-05T15:00:00Z,28.8332,-90.8320,1016.1,11111222 
WAVCIS,ioos:station:WAVCIS:CSI15:1,2009-08-05T16:00:00Z,28.8332,-90.8320,1016.33,11111222 
WAVCIS,ioos:station:WAVCIS:CSI15:1,2009-08-05T17:00:00Z,28.8332,-90.8320,1016.28,11111222 
WAVCIS,ioos:station:WAVCIS:CSI15:1,2009-08-05T18:00:00Z,28.8332,-90.8320,1016.22,11111222 
WAVCIS,ioos:station:WAVCIS:CSI15:1,2009-08-05T19:00:00Z,28.8332,-90.8320,1015.67,11111222 
WAVCIS,ioos:station:WAVCIS:CSI15:1,2009-08-05T20:00:00Z,28.8332,-90.8320,1014.82,11111222 
WAVCIS,ioos:station:WAVCIS:CSI15:1,2009-08-05T21:00:00Z,28.8332,-90.8320,1013.76,11111222 
WAVCIS,ioos:station:WAVCIS:CSI15:1,2009-08-05T22:00:00Z,28.8332,-90.8320,1013.04,11111222 
WAVCIS,ioos:station:WAVCIS:CSI15:1,2009-08-05T23:00:00Z,28.8332,-90.8320,1012.38,11111222 
WAVCIS,ioos:station:WAVCIS:CSI15:1,2009-08-06T00:00:00Z,28.8332,-90.8320,1012.81,11111222 
WAVCIS,ioos:station:WAVCIS:CSI15:1,2009-08-06T01:00:00Z,28.8332,-90.8320,1013.29,11111222 
WAVCIS,ioos:station:WAVCIS:CSI15:1,2009-08-06T02:00:00Z,28.8332,-90.8320,1013.21,11111222 
WAVCIS,ioos:station:WAVCIS:CSI15:1,2009-08-06T03:00:00Z,28.8332,-90.8320,1013.89,11111222 
WAVCIS,ioos:station:WAVCIS:CSI15:1,2009-08-06T04:00:00Z,28.8332,-90.8320,1014.05,11111222 
WAVCIS,ioos:station:WAVCIS:CSI15:1,2009-08-06T05:00:00Z,28.8332,-90.8320,1014.3,11111222 
WAVCIS,ioos:station:WAVCIS:CSI15:1,2009-08-06T06:00:00Z,28.8332,-90.8320,1013.87,11111222 
WAVCIS,ioos:station:WAVCIS:CSI15:1,2009-08-06T07:00:00Z,28.8332,-90.8320,1014.37,11111222 
WAVCIS,ioos:station:WAVCIS:CSI15:1,2009-08-06T08:00:00Z,28.8332,-90.8320,1013.83,11111222 
WAVCIS,ioos:station:WAVCIS:CSI15:1,2009-08-06T09:00:00Z,28.8332,-90.8320,1013.67,11111222 
WAVCIS,ioos:station:WAVCIS:CSI15:1,2009-08-06T10:00:00Z,28.8332,-90.8320,1013.76,11111222 
WAVCIS,ioos:station:WAVCIS:CSI15:1,2009-08-06T11:00:00Z,28.8332,-90.8320,1013.33,11111222 
WAVCIS,ioos:station:WAVCIS:CSI15:1,2009-08-06T12:00:00Z,28.8332,-90.8320,1013.72,11111222 
WAVCIS,ioos:station:WAVCIS:CSI15:1,2009-08-06T13:00:00Z,28.8332,-90.8320,1014.26,11111222 
WAVCIS,ioos:station:WAVCIS:CSI15:1,2009-08-06T14:00:00Z,28.8332,-90.8320,1014.2,11111222 
WAVCIS,ioos:station:WAVCIS:CSI15:1,2009-08-06T15:00:00Z,28.8332,-90.8320,1014.57,11111222 
WAVCIS,ioos:station:WAVCIS:CSI15:1,2009-08-06T16:00:00Z,28.8332,-90.8320,1015.15,11111222 
WAVCIS,ioos:station:WAVCIS:CSI15:1,2009-08-06T17:00:00Z,28.8332,-90.8320,1015.02,11111222 
WAVCIS,ioos:station:WAVCIS:CSI15:1,2009-08-06T18:00:00Z,28.8332,-90.8320,1014.52,11111222 
WAVCIS,ioos:station:WAVCIS:CSI15:1,2009-08-06T19:00:00Z,28.8332,-90.8320,1014.18,11111222 
WAVCIS,ioos:station:WAVCIS:CSI15:1,2009-08-06T20:00:00Z,28.8332,-90.8320,1013.68,11111222 
WAVCIS,ioos:station:WAVCIS:CSI15:1,2009-08-06T21:00:00Z,28.8332,-90.8320,1013.03,11111222 
WAVCIS,ioos:station:WAVCIS:CSI15:1,2009-08-06T22:00:00Z,28.8332,-90.8320,1013.17,11111222 
WAVCIS,ioos:station:WAVCIS:CSI15:1,2009-08-06T23:00:00Z,28.8332,-90.8320,1012.88,11111222 
WAVCIS,ioos:station:WAVCIS:CSI15:1,2009-08-07T00:00:00Z,28.8332,-90.8320,1012.74,11111222 
WAVCIS,ioos:station:WAVCIS:CSI15:1,2009-08-07T01:00:00Z,28.8332,-90.8320,1013.0,11111222 
WAVCIS,ioos:station:WAVCIS:CSI15:1,2009-08-07T02:00:00Z,28.8332,-90.8320,1013.46,11111222 
WAVCIS,ioos:station:WAVCIS:CSI15:1,2009-08-07T03:00:00Z,28.8332,-90.8320,1013.84,11111222 
WAVCIS,ioos:station:WAVCIS:CSI15:1,2009-08-07T04:00:00Z,28.8332,-90.8320,1013.84,11111222 
WAVCIS,ioos:station:WAVCIS:CSI15:1,2009-08-07T05:00:00Z,28.8332,-90.8320,1013.81,11111222 
WAVCIS,ioos:station:WAVCIS:CSI15:1,2009-08-07T06:00:00Z,28.8332,-90.8320,1013.49,11111222 
WAVCIS,ioos:station:WAVCIS:CSI15:1,2009-08-07T07:00:00Z,28.8332,-90.8320,1013.21,11111222 
WAVCIS,ioos:station:WAVCIS:CSI15:1,2009-08-07T08:00:00Z,28.8332,-90.8320,1013.09,11111222 
WAVCIS,ioos:station:WAVCIS:CSI15:1,2009-08-07T09:00:00Z,28.8332,-90.8320,1013.3,11111222 
WAVCIS,ioos:station:WAVCIS:CSI15:1,2009-08-07T10:00:00Z,28.8332,-90.8320,1013.41,11111222 
WAVCIS,ioos:station:WAVCIS:CSI15:1,2009-08-07T11:00:00Z,28.8332,-90.8320,1013.76,11111222 
WAVCIS,ioos:station:WAVCIS:CSI15:1,2009-08-07T12:00:00Z,28.8332,-90.8320,1014.67,11111222 
WAVCIS,ioos:station:WAVCIS:CSI15:1,2009-08-07T13:00:00Z,28.8332,-90.8320,1014.91,11111222 
WAVCIS,ioos:station:WAVCIS:CSI15:1,2009-08-07T14:00:00Z,28.8332,-90.8320,1015.5,11111222 
WAVCIS,ioos:station:WAVCIS:CSI15:1,2009-08-07T15:00:00Z,28.8332,-90.8320,1015.63,11111222 
WAVCIS,ioos:station:WAVCIS:CSI15:1,2009-08-07T16:00:00Z,28.8332,-90.8320,1016.13,11111222 
WAVCIS,ioos:station:WAVCIS:CSI15:1,2009-08-07T17:00:00Z,28.8332,-90.8320,1016.07,11111222 
WAVCIS,ioos:station:WAVCIS:CSI15:1,2009-08-07T18:00:00Z,28.8332,-90.8320,1015.62,11111222 
WAVCIS,ioos:station:WAVCIS:CSI15:1,2009-08-07T19:00:00Z,28.8332,-90.8320,1015.26,11111222 
WAVCIS,ioos:station:WAVCIS:CSI15:1,2009-08-07T20:00:00Z,28.8332,-90.8320,1014.73,11111222 
WAVCIS,ioos:station:WAVCIS:CSI15:1,2009-08-07T21:00:00Z,28.8332,-90.8320,1014.17,11111222 
WAVCIS,ioos:station:WAVCIS:CSI15:1,2009-08-07T22:00:00Z,28.8332,-90.8320,1013.86,11111222 
WAVCIS,ioos:station:WAVCIS:CSI15:1,2009-08-07T23:00:00Z,28.8332,-90.8320,1013.9,11111222 
WAVCIS,ioos:station:WAVCIS:CSI15:1,2009-08-08T00:00:00Z,28.8332,-90.8320,1013.78,11111222 
WAVCIS,ioos:station:WAVCIS:CSI15:1,2009-08-08T01:00:00Z,28.8332,-90.8320,1013.93,11111222 
WAVCIS,ioos:station:WAVCIS:CSI15:1,2009-08-08T02:00:00Z,28.8332,-90.8320,1014.35,11111222 
WAVCIS,ioos:station:WAVCIS:CSI15:1,2009-08-08T03:00:00Z,28.8332,-90.8320,1014.75,11111222 
WAVCIS,ioos:station:WAVCIS:CSI15:1,2009-08-08T04:00:00Z,28.8332,-90.8320,1015.28,11111222 
WAVCIS,ioos:station:WAVCIS:CSI15:1,2009-08-08T05:00:00Z,28.8332,-90.8320,1015.65,11111222 
WAVCIS,ioos:station:WAVCIS:CSI15:1,2009-08-08T06:00:00Z,28.8332,-90.8320,1015.37,11111222 
WAVCIS,ioos:station:WAVCIS:CSI15:1,2009-08-08T07:00:00Z,28.8332,-90.8320,1015.04,11111222 
WAVCIS,ioos:station:WAVCIS:CSI15:1,2009-08-08T08:00:00Z,28.8332,-90.8320,1014.82,11111222 
WAVCIS,ioos:station:WAVCIS:CSI15:1,2009-08-08T09:00:00Z,28.8332,-90.8320,1014.64,11111222 
WAVCIS,ioos:station:WAVCIS:CSI15:1,2009-08-08T10:00:00Z,28.8332,-90.8320,1014.77,11111222 
WAVCIS,ioos:station:WAVCIS:CSI15:1,2009-08-08T11:00:00Z,28.8332,-90.8320,1014.94,11111222 
WAVCIS,ioos:station:WAVCIS:CSI15:1,2009-08-08T12:00:00Z,28.8332,-90.8320,1015.26,11111222 
WAVCIS,ioos:station:WAVCIS:CSI15:1,2009-08-08T13:00:00Z,28.8332,-90.8320,1015.66,11111222 
WAVCIS,ioos:station:WAVCIS:CSI15:1,2009-08-08T14:00:00Z,28.8332,-90.8320,1016.06,11111222 
WAVCIS,ioos:station:WAVCIS:CSI15:1,2009-08-08T15:00:00Z,28.8332,-90.8320,1016.38,11111222 
WAVCIS,ioos:station:WAVCIS:CSI15:1,2009-08-08T16:00:00Z,28.8332,-90.8320,1016.79,11111222 
WAVCIS,ioos:station:WAVCIS:CSI15:1,2009-08-08T17:00:00Z,28.8332,-90.8320,1016.75,11111222 
WAVCIS,ioos:station:WAVCIS:CSI15:1,2009-08-08T18:00:00Z,28.8332,-90.8320,1016.14,11111222 
WAVCIS,ioos:station:WAVCIS:CSI15:1,2009-08-08T19:00:00Z,28.8332,-90.8320,1016.26,11111222 
WAVCIS,ioos:station:WAVCIS:CSI15:1,2009-08-08T20:00:00Z,28.8332,-90.8320,1015.69,11111222 
WAVCIS,ioos:station:WAVCIS:CSI15:1,2009-08-08T21:00:00Z,28.8332,-90.8320,1015.24,11111222 
WAVCIS,ioos:station:WAVCIS:CSI15:1,2009-08-08T22:00:00Z,28.8332,-90.8320,1015.33,11111222 
WAVCIS,ioos:station:WAVCIS:CSI15:1,2009-08-08T23:00:00Z,28.8332,-90.8320,1015.52,11111222 
WAVCIS,ioos:station:WAVCIS:CSI15:1,2009-08-09T00:00:00Z,28.8332,-90.8320,1015.84,11111222 
WAVCIS,ioos:station:WAVCIS:CSI15:1,2009-08-09T01:00:00Z,28.8332,-90.8320,1015.85,11111222 
WAVCIS,ioos:station:WAVCIS:CSI15:1,2009-08-09T02:00:00Z,28.8332,-90.8320,1015.34,11111222 
WAVCIS,ioos:station:WAVCIS:CSI15:1,2009-08-09T03:00:00Z,28.8332,-90.8320,1016.13,11111222 
WAVCIS,ioos:station:WAVCIS:CSI15:1,2009-08-09T04:00:00Z,28.8332,-90.8320,1016.22,11111222 
WAVCIS,ioos:station:WAVCIS:CSI15:1,2009-08-09T05:00:00Z,28.8332,-90.8320,1016.14,11111222 
WAVCIS,ioos:station:WAVCIS:CSI15:1,2009-08-09T06:00:00Z,28.8332,-90.8320,1016.04,11111222 
WAVCIS,ioos:station:WAVCIS:CSI15:1,2009-08-09T07:00:00Z,28.8332,-90.8320,1015.78,11111222 
WAVCIS,ioos:station:WAVCIS:CSI15:1,2009-08-09T08:00:00Z,28.8332,-90.8320,1015.83,11111222 
WAVCIS,ioos:station:WAVCIS:CSI15:1,2009-08-09T09:00:00Z,28.8332,-90.8320,1016.06,11111222 
WAVCIS,ioos:station:WAVCIS:CSI15:1,2009-08-09T10:00:00Z,28.8332,-90.8320,1016.11,11111222 
WAVCIS,ioos:station:WAVCIS:CSI15:1,2009-08-09T11:00:00Z,28.8332,-90.8320,1016.4,11111222 
WAVCIS,ioos:station:WAVCIS:CSI15:1,2009-08-09T12:00:00Z,28.8332,-90.8320,1016.76,11111222 
WAVCIS,ioos:station:WAVCIS:CSI15:1,2009-08-09T13:00:00Z,28.8332,-90.8320,1017.39,11111222 
WAVCIS,ioos:station:WAVCIS:CSI15:1,2009-08-09T14:00:00Z,28.8332,-90.8320,1017.93,11111222 
WAVCIS,ioos:station:WAVCIS:CSI15:1,2009-08-09T15:00:00Z,28.8332,-90.8320,1018.15,11111222 
WAVCIS,ioos:station:WAVCIS:CSI15:1,2009-08-09T16:00:00Z,28.8332,-90.8320,1018.2,11111222 
WAVCIS,ioos:station:WAVCIS:CSI15:1,2009-08-09T17:00:00Z,28.8332,-90.8320,1018.43,11111222 
WAVCIS,ioos:station:WAVCIS:CSI15:1,2009-08-09T18:00:00Z,28.8332,-90.8320,1018.53,11111222 
WAVCIS,ioos:station:WAVCIS:CSI15:1,2009-08-09T19:00:00Z,28.8332,-90.8320,1018.09,11111222 
WAVCIS,ioos:station:WAVCIS:CSI15:1,2009-08-09T20:00:00Z,28.8332,-90.8320,1017.51,11111222 
WAVCIS,ioos:station:WAVCIS:CSI15:1,2009-08-09T21:00:00Z,28.8332,-90.8320,1017.17,11111222 
WAVCIS,ioos:station:WAVCIS:CSI15:1,2009-08-09T22:00:00Z,28.8332,-90.8320,1017.43,11111222 
WAVCIS,ioos:station:WAVCIS:CSI15:1,2009-08-09T23:00:00Z,28.8332,-90.8320,1017.35,11111222 
WAVCIS,ioos:station:WAVCIS:CSI15:1,2009-08-10T00:00:00Z,28.8332,-90.8320,1017.4,11111222 
WAVCIS,ioos:station:WAVCIS:CSI15:1,2009-08-10T01:00:00Z,28.8332,-90.8320,1017.51,11111222 
WAVCIS,ioos:station:WAVCIS:CSI15:1,2009-08-10T02:00:00Z,28.8332,-90.8320,1017.52,11111222 
WAVCIS,ioos:station:WAVCIS:CSI15:1,2009-08-10T03:00:00Z,28.8332,-90.8320,1017.6,11111222 
WAVCIS,ioos:station:WAVCIS:CSI15:1,2009-08-10T04:00:00Z,28.8332,-90.8320,1017.47,11111222 
WAVCIS,ioos:station:WAVCIS:CSI15:1,2009-08-10T05:00:00Z,28.8332,-90.8320,1017.19,11111222 
WAVCIS,ioos:station:WAVCIS:CSI15:1,2009-08-10T06:00:00Z,28.8332,-90.8320,1016.73,11111222 
WAVCIS,ioos:station:WAVCIS:CSI15:1,2009-08-10T07:00:00Z,28.8332,-90.8320,1016.74,11111222 
WAVCIS,ioos:station:WAVCIS:CSI15:1,2009-08-10T08:00:00Z,28.8332,-90.8320,1016.71,11111222 
WAVCIS,ioos:station:WAVCIS:CSI15:1,2009-08-10T09:00:00Z,28.8332,-90.8320,1017.1,11111222 
WAVCIS,ioos:station:WAVCIS:CSI15:1,2009-08-10T10:00:00Z,28.8332,-90.8320,1017.49,11111222 
WAVCIS,ioos:station:WAVCIS:CSI15:1,2009-08-10T11:00:00Z,28.8332,-90.8320,1017.64,11111222 
WAVCIS,ioos:station:WAVCIS:CSI15:1,2009-08-10T12:00:00Z,28.8332,-90.8320,1018.35,11111222 
WAVCIS,ioos:station:WAVCIS:CSI15:1,2009-08-10T13:00:00Z,28.8332,-90.8320,1018.67,11111222 
WAVCIS,ioos:station:WAVCIS:CSI15:1,2009-08-10T14:00:00Z,28.8332,-90.8320,1018.91,11111222 
WAVCIS,ioos:station:WAVCIS:CSI15:1,2009-08-10T15:00:00Z,28.8332,-90.8320,1019.2,11111222 
WAVCIS,ioos:station:WAVCIS:CSI15:1,2009-08-10T16:00:00Z,28.8332,-90.8320,1019.25,11111222 
WAVCIS,ioos:station:WAVCIS:CSI15:1,2009-08-10T17:00:00Z,28.8332,-90.8320,1018.76,11111222 
WAVCIS,ioos:station:WAVCIS:CSI15:1,2009-08-10T18:00:00Z,28.8332,-90.8320,1018.32,11111222 
WAVCIS,ioos:station:WAVCIS:CSI15:1,2009-08-10T19:00:00Z,28.8332,-90.8320,1018.14,11111222 
WAVCIS,ioos:station:WAVCIS:CSI15:1,2009-08-10T20:00:00Z,28.8332,-90.8320,1017.52,11111222 
WAVCIS,ioos:station:WAVCIS:CSI15:1,2009-08-10T21:00:00Z,28.8332,-90.8320,1016.62,11111222 
WAVCIS,ioos:station:WAVCIS:CSI15:1,2009-08-10T22:00:00Z,28.8332,-90.8320,1016.2,11111222 
WAVCIS,ioos:station:WAVCIS:CSI15:1,2009-08-10T23:00:00Z,28.8332,-90.8320,1016.08,11111222 
WAVCIS,ioos:station:WAVCIS:CSI15:1,2009-08-11T00:00:00Z,28.8332,-90.8320,1015.83,11111222 
WAVCIS,ioos:station:WAVCIS:CSI15:1,2009-08-11T01:00:00Z,28.8332,-90.8320,1016.06,11111222 
WAVCIS,ioos:station:WAVCIS:CSI15:1,2009-08-11T02:00:00Z,28.8332,-90.8320,1015.9,11111222 
WAVCIS,ioos:station:WAVCIS:CSI15:1,2009-08-11T03:00:00Z,28.8332,-90.8320,1016.63,11111222 
WAVCIS,ioos:station:WAVCIS:CSI15:1,2009-08-11T04:00:00Z,28.8332,-90.8320,1016.61,11111222 
WAVCIS,ioos:station:WAVCIS:CSI15:1,2009-08-11T05:00:00Z,28.8332,-90.8320,1016.35,11111222 
WAVCIS,ioos:station:WAVCIS:CSI15:1,2009-08-11T06:00:00Z,28.8332,-90.8320,1016.11,11111222 
WAVCIS,ioos:station:WAVCIS:CSI15:1,2009-08-11T07:00:00Z,28.8332,-90.8320,1015.78,11111222 
WAVCIS,ioos:station:WAVCIS:CSI15:1,2009-08-11T08:00:00Z,28.8332,-90.8320,1015.52,11111222 
WAVCIS,ioos:station:WAVCIS:CSI15:1,2009-08-11T09:00:00Z,28.8332,-90.8320,1015.51,11111222 
WAVCIS,ioos:station:WAVCIS:CSI15:1,2009-08-11T10:00:00Z,28.8332,-90.8320,1015.28,11111222 
WAVCIS,ioos:station:WAVCIS:CSI15:1,2009-08-11T11:00:00Z,28.8332,-90.8320,1015.47,11111222 
WAVCIS,ioos:station:WAVCIS:CSI15:1,2009-08-11T12:00:00Z,28.8332,-90.8320,1016.15,11111222 
WAVCIS,ioos:station:WAVCIS:CSI15:1,2009-08-11T13:00:00Z,28.8332,-90.8320,1016.72,11111222 
WAVCIS,ioos:station:WAVCIS:CSI15:1,2009-08-11T14:00:00Z,28.8332,-90.8320,1016.93,11111222 
WAVCIS,ioos:station:WAVCIS:CSI15:1,2009-08-11T15:00:00Z,28.8332,-90.8320,1017.36,11111222 
WAVCIS,ioos:station:WAVCIS:CSI15:1,2009-08-11T16:00:00Z,28.8332,-90.8320,1017.29,11111222 
WAVCIS,ioos:station:WAVCIS:CSI15:1,2009-08-11T17:00:00Z,28.8332,-90.8320,1016.91,11111222 
WAVCIS,ioos:station:WAVCIS:CSI15:1,2009-08-11T18:00:00Z,28.8332,-90.8320,1016.31,11111222 
WAVCIS,ioos:station:WAVCIS:CSI15:1,2009-08-11T19:00:00Z,28.8332,-90.8320,1015.55,11111222 
WAVCIS,ioos:station:WAVCIS:CSI15:1,2009-08-11T20:00:00Z,28.8332,-90.8320,1015.05,11111222 
WAVCIS,ioos:station:WAVCIS:CSI15:1,2009-08-11T21:00:00Z,28.8332,-90.8320,1014.41,11111222 
WAVCIS,ioos:station:WAVCIS:CSI15:1,2009-08-11T22:00:00Z,28.8332,-90.8320,1014.15,11111222 